Tracking 26922 objects as of 1-Feb-2023
HD Live streaming from Space Station
objects crossing your sky now

COSMOS 886 DEB

Track COSMOS 886 DEB now!
10-day predictions


NORAD ID: 9821
Int'l Code: 1976-126AH
Perigee: 501.0 km
Apogee: 1,033.3 km
Inclination: 65.8 °
Period: 100.0 minutes
Semi major axis: 7138 km
RCS: 0.051 m2 (small)
Launch date: December 27, 1976
Source: Commonwealth of Independent States (former USSR) (CIS)
Launch site: TYURATAM MISSILE AND SPACE COMPLEX (TTMTR)

Note: This is SATELLITE DEBRIS
Your satellite tracking list
Your tracking list is empty




NASA's NSSDC Master Catalog

Two Line Element Set (TLE):
1 09821U 76126AH  23031.53311214  .00008271  00000-0  11728-2 0  9990
2 09821  65.7642 144.3976 0372853 348.2935  10.9659 14.39546511283000
Source of the keplerian elements: AFSPC